McAlester, OK

1:25 PM CDT on September 18, 2019 (GMT -0500)
McAlester Regional

Weather History for KMLC - August, 2019

Change the Weather History Date:

Sunday, August 25, 2019

  Actual Average Record
Temperature  
Mean Temperature 78 °F -  
Max Temperature 86 °F 92 °F 104 °F (2006)
Min Temperature 73 °F 69 °F 53 °F (1966)
Cooling Degree Days 14    
Growing Degree Days 28 (Base 50)    
Moisture  
Dew Point 72 °F    
Average Humidity 83    
Maximum Humidity 97    
Minimum Humidity 57    
Precipitation  
Precipitation 0.01 in - - ()
Sea Level Pressure  
Sea Level Pressure 29.86 in    
Wind  
Wind Speed 5 mph (SSE)    
Max Wind Speed 10 mph    
Max Gust Speed 20 mph    
Visibility 10 miles    
Events Rain , Thunderstorm    
Averages and records for this station are not official NWS values.
T = Trace of Precipitation, MM = Missing Value Source: NWS Daily Summary

Daily Weather History Graph

Daily Weather History Graph

Search for Another Location

Airport or City:

Astronomy

Aug. 25, 2019 Rise Set
Actual Time 6:50 AM CDT 7:59 PM CDT
Civil Twilight 6:24 AM CDT 8:25 PM CDT
Nautical Twilight 5:53 AM CDT 8:56 PM CDT
Astronomical Twilight 5:21 AM CDT 9:28 PM CDT
Moon 1:33 AM CDT (8/25) 4:13 PM CDT (8/25)
Length of Visible Light 14h 00m
Length of Day
13h 08m
Waning Crescent, 29% of the Moon is Illuminated
Aug 25
Waning Crescent
Aug 30
New
Sep 5
First Quarter
Sep 13
Full
Sep 21
Last Quarter

Hourly Weather History & Observations

Time (CDT) Temp. Heat Index Dew Point Humidity Pressure Visibility Wind Dir Wind Speed Gust Speed Precip Events Conditions
12:53 AM 73.9 °F - 73.0 °F 97% 29.91 in 10.0 mi East 3.5 mph - N/A   Scattered Clouds
1:53 AM 73.9 °F - 72.0 °F 93% 29.91 in 10.0 mi East 4.6 mph - N/A   Clear
2:53 AM 73.0 °F - 72.0 °F 96% 29.88 in 10.0 mi East 4.6 mph - N/A   Clear
3:53 AM 73.0 °F - 72.0 °F 96% 29.88 in 10.0 mi East 4.6 mph - N/A   Clear
4:53 AM 73.0 °F - 71.1 °F 93% 29.88 in 9.0 mi ESE 3.5 mph - N/A   Clear
5:53 AM 73.0 °F - 71.1 °F 93% 29.89 in 8.0 mi ESE 3.5 mph - N/A   Clear
6:53 AM 73.0 °F - 71.1 °F 93% 29.87 in 10.0 mi SE 3.5 mph - N/A   Clear
7:53 AM 75.0 °F - 72.0 °F 90% 29.86 in 10.0 mi Variable 3.5 mph - N/A   Clear
8:53 AM 78.1 °F - 73.9 °F 87% 29.85 in 10.0 mi SSE 10.4 mph 19.6 mph N/A   Scattered Clouds
9:15 AM 79.0 °F - 73.0 °F 82% 29.95 in 10.0 mi WSW 6.9 mph - N/A   Mostly Cloudy
9:44 AM 79.0 °F - 73.9 °F 84% 29.94 in 10.0 mi West 6.9 mph - N/A   Overcast
9:53 AM 78.1 °F - 73.0 °F 84% 29.91 in 10.0 mi West 9.2 mph - N/A   Overcast
10:36 AM 75.9 °F - 73.0 °F 91% 29.94 in 8.0 mi South 3.5 mph - 0.01 in Rain , Thunderstorm Light Rain
10:53 AM 77.0 °F - 73.9 °F 90% 29.93 in 9.0 mi WSW 4.6 mph - 0.01 in Thunderstorm Overcast
11:04 AM 77.0 °F - 73.9 °F 90% 29.95 in 9.0 mi SW 5.8 mph - N/A   Overcast
11:53 AM 79.0 °F - 73.0 °F 82% 29.90 in 10.0 mi SSW 6.9 mph - N/A   Clear
12:53 PM 81.0 °F 84.4 °F 70.0 °F 69% 29.89 in 10.0 mi SW 5.8 mph - N/A   Scattered Clouds
1:53 PM 82.9 °F 86.5 °F 69.1 °F 63% 29.85 in 10.0 mi Calm Calm - N/A   Clear
2:53 PM 81.0 °F 84.9 °F 71.1 °F 72% 29.80 in 10.0 mi South 9.2 mph - N/A   Clear
3:53 PM 82.9 °F 87.0 °F 70.0 °F 65% 29.79 in 10.0 mi Variable 4.6 mph - N/A   Clear
4:53 PM 84.9 °F 88.2 °F 68.0 °F 57% 29.77 in 10.0 mi Variable 4.6 mph - N/A   Clear
5:53 PM 84.9 °F 90.7 °F 72.0 °F 65% 29.77 in 10.0 mi Variable 4.6 mph - N/A   Clear
6:53 PM 84.0 °F 89.0 °F 71.1 °F 65% 29.76 in 10.0 mi Variable 3.5 mph - N/A   Clear
7:53 PM 79.0 °F - 73.0 °F 82% 29.77 in 10.0 mi Calm Calm - N/A   Clear
8:53 PM 77.0 °F - 73.0 °F 88% 29.78 in 10.0 mi East 3.5 mph - N/A   Clear
9:53 PM 75.9 °F - 72.0 °F 87% 29.80 in 10.0 mi ESE 3.5 mph - N/A   Clear
10:53 PM 75.0 °F - 72.0 °F 90% 29.79 in 10.0 mi ESE 4.6 mph - N/A   Partly Cloudy
11:53 PM 73.9 °F - 70.0 °F 87% 29.78 in 10.0 mi ESE 6.9 mph - N/A   Mostly Cloudy